Time,TemperatureF,DewpointF,PressureIn,WindDirection,WindDirectionDegrees,WindSpeedMPH,WindSpeedGustMPH,Humidity,HourlyPrecipIn,Conditions,Clouds,dailyrainin,SoftwareType,DateUTC
2013-02-19 00:01:00,59.6,33.3,30.08,NNE,32,1.0,11.0,37,0.00,,SKC,0.00,VWS V14.01,2013-02-19 06:01:00,
2013-02-19 00:06:00,59.5,33.2,30.08,NNE,22,6.0,10.0,37,0.00,,SKC,0.00,VWS V14.01,2013-02-19 06:06:00,
2013-02-19 00:11:00,59.3,33.0,30.08,North,360,4.0,11.0,37,0.00,,SKC,0.00,VWS V14.01,2013-02-19 06:11:00,
2013-02-19 00:16:00,59.2,33.0,30.08,NE,40,4.0,11.0,37,0.00,,SKC,0.00,VWS V14.01,2013-02-19 06:16:00,
2013-02-19 00:21:00,59.0,33.5,30.08,NNE,12,8.0,12.0,38,0.00,,SKC,0.00,VWS V14.01,2013-02-19 06:21:00,
2013-02-19 00:26:00,58.8,33.3,30.08,NE,39,8.0,13.0,38,0.00,,SKC,0.00,VWS V14.01,2013-02-19 06:26:00,
2013-02-19 00:31:00,58.7,33.2,30.09,NNE,16,1.0,13.0,38,0.00,,SKC,0.00,VWS V14.01,2013-02-19 06:31:00,
2013-02-19 00:36:00,58.6,33.7,30.08,NNE,19,2.0,11.0,39,0.00,,SKC,0.00,VWS V14.01,2013-02-19 06:36:00,
2013-02-19 00:41:00,58.4,33.6,30.08,NNE,13,5.0,11.0,39,0.00,,SKC,0.00,VWS V14.01,2013-02-19 06:41:00,
2013-02-19 00:46:00,58.1,33.3,30.09,North,355,4.0,11.0,39,0.00,,SKC,0.00,VWS V14.01,2013-02-19 06:46:00,
2013-02-19 00:51:00,57.9,33.8,30.09,NNE,32,1.0,11.0,40,0.00,,SKC,0.00,VWS V14.01,2013-02-19 06:51:00,
2013-02-19 00:56:00,57.8,33.7,30.09,NE,36,2.0,11.0,40,0.00,,SKC,0.00,VWS V14.01,2013-02-19 06:56:00,
2013-02-19 01:01:00,57.6,33.5,30.09,NNE,23,4.0,11.0,40,0.00,,SKC,0.00,VWS V14.01,2013-02-19 07:01:00,
2013-02-19 01:06:00,57.3,33.8,30.09,North,360,2.0,10.0,41,0.00,,SKC,0.00,VWS V14.01,2013-02-19 07:06:00,
2013-02-19 01:11:00,57.2,33.7,30.09,NNE,19,0.0,11.0,41,0.00,,SKC,0.00,VWS V14.01,2013-02-19 07:11:00,
2013-02-19 01:16:00,57.0,33.5,30.09,NNE,27,8.0,11.0,41,0.00,,SKC,0.00,VWS V14.01,2013-02-19 07:16:00,
2013-02-19 01:21:00,56.9,34.1,30.09,NE,53,7.0,11.0,42,0.00,,SKC,0.00,VWS V14.01,2013-02-19 07:21:00,
2013-02-19 01:26:00,56.9,34.1,30.09,NNE,30,3.0,12.0,42,0.00,,SKC,0.00,VWS V14.01,2013-02-19 07:26:00,
2013-02-19 01:31:00,56.7,33.9,30.09,NNE,18,2.0,12.0,42,0.00,,SKC,0.00,VWS V14.01,2013-02-19 07:31:00,
2013-02-19 01:36:00,56.6,33.8,30.10,NNE,25,2.0,10.0,42,0.00,,SKC,0.00,VWS V14.01,2013-02-19 07:36:00,
2013-02-19 01:41:00,56.5,34.3,30.10,NE,36,0.0,10.0,43,0.00,,SKC,0.00,VWS V14.01,2013-02-19 07:41:00,
2013-02-19 01:46:00,56.2,34.0,30.10,NNE,19,5.0,10.0,43,0.00,,SKC,0.00,VWS V14.01,2013-02-19 07:46:00,
2013-02-19 01:51:00,56.0,33.8,30.11,NNE,26,0.0,12.0,43,0.00,,SKC,0.00,VWS V14.01,2013-02-19 07:51:00,
2013-02-19 01:56:00,55.8,33.7,30.11,NNE,22,4.0,12.0,43,0.00,,SKC,0.00,VWS V14.01,2013-02-19 07:56:00,
2013-02-19 02:01:00,55.6,34.0,30.11,NNE,15,1.0,12.0,44,0.00,,SKC,0.00,VWS V14.01,2013-02-19 08:01:00,
2013-02-19 02:06:00,55.3,33.8,30.11,NNE,32,0.0,10.0,44,0.00,,SKC,0.00,VWS V14.01,2013-02-19 08:06:00,
2013-02-19 02:11:00,55.1,33.6,30.11,North,5,5.0,10.0,44,0.00,,SKC,0.00,VWS V14.01,2013-02-19 08:11:00,
2013-02-19 02:16:00,55.0,34.1,30.11,NE,47,1.0,10.0,45,0.00,,SKC,0.00,VWS V14.01,2013-02-19 08:16:00,
2013-02-19 02:21:00,54.8,33.9,30.12,NE,39,1.0,10.0,45,0.00,,SKC,0.00,VWS V14.01,2013-02-19 08:21:00,
2013-02-19 02:26:00,54.7,33.8,30.12,NE,38,4.0,10.0,45,0.00,,SKC,0.00,VWS V14.01,2013-02-19 08:26:00,
2013-02-19 02:31:00,54.6,33.7,30.12,NNE,30,0.0,10.0,45,0.00,,SKC,0.00,VWS V14.01,2013-02-19 08:31:00,
2013-02-19 02:36:00,54.5,33.6,30.13,NNE,31,0.0,3.0,45,0.00,,SKC,0.00,VWS V14.01,2013-02-19 08:36:00,
2013-02-19 02:41:00,54.4,34.1,30.14,NNE,31,0.0,3.0,46,0.00,,SKC,0.00,VWS V14.01,2013-02-19 08:41:00,
2013-02-19 02:46:00,54.2,33.9,30.14,NE,56,0.0,5.0,46,0.00,,SKC,0.00,VWS V14.01,2013-02-19 08:46:00,
2013-02-19 02:51:00,54.1,33.8,30.14,NE,56,0.0,5.0,46,0.00,,SKC,0.00,VWS V14.01,2013-02-19 08:51:00,
2013-02-19 02:56:00,53.9,33.6,30.14,NE,56,0.0,5.0,46,0.00,,SKC,0.00,VWS V14.01,2013-02-19 08:56:00,
2013-02-19 03:01:00,53.6,33.9,30.14,ENE,57,0.0,5.0,47,0.00,,SKC,0.00,VWS V14.01,2013-02-19 09:01:00,
2013-02-19 03:06:00,53.4,33.7,30.14,ENE,57,0.0,3.0,47,0.00,,SKC,0.00,VWS V14.01,2013-02-19 09:06:00,
2013-02-19 03:11:00,53.2,34.0,30.14,NE,56,0.0,4.0,48,0.00,,SKC,0.00,VWS V14.01,2013-02-19 09:11:00,
2013-02-19 03:16:00,53.0,33.8,30.14,NE,56,0.0,4.0,48,0.00,,SKC,0.00,VWS V14.01,2013-02-19 09:16:00,
2013-02-19 03:21:00,52.7,33.6,30.14,NE,56,0.0,4.0,48,0.00,,SKC,0.00,VWS V14.01,2013-02-19 09:21:00,
2013-02-19 03:26:00,52.4,33.8,30.15,ENE,57,0.0,4.0,49,0.00,,SKC,0.00,VWS V14.01,2013-02-19 09:26:00,
2013-02-19 03:31:00,52.2,33.6,30.15,ENE,57,0.0,4.0,49,0.00,,SKC,0.00,VWS V14.01,2013-02-19 09:31:00,
2013-02-19 03:36:00,52.0,33.5,30.16,ENE,57,0.0,1.0,49,0.00,,SKC,0.00,VWS V14.01,2013-02-19 09:36:00,
2013-02-19 03:41:00,51.7,33.7,30.16,ENE,57,0.0,1.0,50,0.00,,SKC,0.00,VWS V14.01,2013-02-19 09:41:00,
2013-02-19 03:46:00,51.6,33.6,30.16,ENE,57,0.0,1.0,50,0.00,,SKC,0.00,VWS V14.01,2013-02-19 09:46:00,
2013-02-19 03:51:00,51.4,33.4,30.16,ENE,57,0.0,1.0,50,0.00,,SKC,0.00,VWS V14.01,2013-02-19 09:51:00,
2013-02-19 03:56:00,51.2,33.7,30.16,ENE,57,0.0,1.0,51,0.00,,SKC,0.00,VWS V14.01,2013-02-19 09:56:00,
2013-02-19 04:01:00,51.0,33.5,30.16,ENE,57,0.0,1.0,51,0.00,,SKC,0.00,VWS V14.01,2013-02-19 10:01:00,
2013-02-19 04:06:00,50.6,33.6,30.16,ENE,57,0.0,0.0,52,0.00,,SKC,0.00,VWS V14.01,2013-02-19 10:06:00,
2013-02-19 04:11:00,50.3,33.4,30.16,ENE,57,0.0,0.0,52,0.00,,SKC,0.00,VWS V14.01,2013-02-19 10:11:00,
2013-02-19 04:16:00,49.9,33.5,30.16,ENE,57,0.0,0.0,53,0.00,,SKC,0.00,VWS V14.01,2013-02-19 10:16:00,
2013-02-19 04:21:00,49.6,33.7,30.17,ENE,57,0.0,0.0,54,0.00,,SKC,0.00,VWS V14.01,2013-02-19 10:21:00,
2013-02-19 04:26:00,49.2,33.3,30.17,NE,56,1.0,2.0,54,0.00,,SKC,0.00,VWS V14.01,2013-02-19 10:26:00,
2013-02-19 04:31:00,48.9,33.5,30.16,NE,55,0.0,4.0,55,0.00,,SKC,0.00,VWS V14.01,2013-02-19 10:31:00,
2013-02-19 04:36:00,48.9,33.5,30.16,NE,54,0.0,5.0,55,0.00,,SKC,0.00,VWS V14.01,2013-02-19 10:36:00,
2013-02-19 04:41:00,49.0,33.5,30.17,NE,56,1.0,5.0,55,0.00,,SKC,0.00,VWS V14.01,2013-02-19 10:41:00,
2013-02-19 04:46:00,49.2,33.3,30.17,ENE,58,0.0,5.0,54,0.00,,SKC,0.00,VWS V14.01,2013-02-19 10:46:00,
2013-02-19 04:51:00,49.2,33.3,30.17,NE,49,0.0,6.0,54,0.00,,SKC,0.00,VWS V14.01,2013-02-19 10:51:00,
2013-02-19 04:56:00,49.3,32.9,30.17,NE,49,0.0,6.0,53,0.00,,SKC,0.00,VWS V14.01,2013-02-19 10:56:00,
2013-02-19 05:01:00,49.4,33.5,30.17,NE,49,0.0,9.0,54,0.00,,SKC,0.00,VWS V14.01,2013-02-19 11:01:00,
2013-02-19 05:06:00,49.4,33.0,30.17,NE,37,5.0,6.0,53,0.00,,SKC,0.00,VWS V14.01,2013-02-19 11:06:00,
2013-02-19 05:11:00,49.4,33.0,30.17,NE,40,0.0,6.0,53,0.00,,SKC,0.00,VWS V14.01,2013-02-19 11:11:00,
2013-02-19 05:16:00,49.4,33.0,30.17,NE,37,1.0,6.0,53,0.00,,SKC,0.00,VWS V14.01,2013-02-19 11:16:00,
2013-02-19 05:21:00,49.3,32.9,30.18,NNE,13,2.0,7.0,53,0.00,,SKC,0.00,VWS V14.01,2013-02-19 11:21:00,
2013-02-19 05:26:00,49.3,32.9,30.18,NE,49,0.0,7.0,53,0.00,,SKC,0.00,VWS V14.01,2013-02-19 11:26:00,
2013-02-19 05:31:00,49.2,33.3,30.17,NE,39,2.0,7.0,54,0.00,,SKC,0.00,VWS V14.01,2013-02-19 11:31:00,
2013-02-19 05:36:00,49.1,33.2,30.18,NE,45,4.0,5.0,54,0.00,,SKC,0.00,VWS V14.01,2013-02-19 11:36:00,
2013-02-19 05:41:00,49.0,33.1,30.18,NE,37,1.0,7.0,54,0.00,,SKC,0.00,VWS V14.01,2013-02-19 11:41:00,
2013-02-19 05:46:00,48.9,33.0,30.18,NE,38,3.0,10.0,54,0.00,,SKC,0.00,VWS V14.01,2013-02-19 11:46:00,
2013-02-19 05:51:00,48.8,32.9,30.19,NE,40,0.0,10.0,54,0.00,,SKC,0.00,VWS V14.01,2013-02-19 11:51:00,
2013-02-19 05:56:00,48.8,33.4,30.19,NE,48,0.0,10.0,55,0.00,,SKC,0.00,VWS V14.01,2013-02-19 11:56:00,
2013-02-19 06:01:00,48.7,33.3,30.19,NE,39,0.0,10.0,55,0.00,,SKC,0.00,VWS V14.01,2013-02-19 12:01:00,
2013-02-19 06:06:00,48.5,33.1,30.19,NE,38,2.0,5.0,55,0.00,,SKC,0.00,VWS V14.01,2013-02-19 12:06:00,
2013-02-19 06:11:00,48.4,33.0,30.19,NE,50,4.0,9.0,55,0.00,,SKC,0.00,VWS V14.01,2013-02-19 12:11:00,
2013-02-19 06:16:00,48.4,33.4,30.19,NNE,33,2.0,9.0,56,0.00,,SKC,0.00,VWS V14.01,2013-02-19 12:16:00,
2013-02-19 06:21:00,48.4,33.4,30.19,NNE,17,2.0,10.0,56,0.00,,SKC,0.00,VWS V14.01,2013-02-19 12:21:00,
2013-02-19 06:26:00,48.4,33.4,30.20,NNE,32,0.0,10.0,56,0.00,,SKC,0.00,VWS V14.01,2013-02-19 12:26:00,
2013-02-19 06:31:00,48.3,33.3,30.20,NNE,31,2.0,10.0,56,0.00,,SKC,0.00,VWS V14.01,2013-02-19 12:31:00,
2013-02-19 06:36:00,48.2,34.1,30.20,NNE,24,3.0,7.0,58,0.00,,SKC,0.00,VWS V14.01,2013-02-19 12:36:00,
2013-02-19 06:41:00,48.0,33.1,30.21,NNE,22,0.0,7.0,56,0.00,,SKC,0.00,VWS V14.01,2013-02-19 12:41:00,
2013-02-19 06:46:00,47.8,33.3,30.21,NNE,22,0.0,7.0,57,0.00,,SKC,0.00,VWS V14.01,2013-02-19 12:46:00,
2013-02-19 06:50:00,47.6,33.1,30.21,NNE,22,1.0,7.0,57,0.00,,SKC,0.00,VWS V14.01,2013-02-19 12:50:00,
2013-02-19 06:55:00,47.6,33.1,30.21,North,11,4.0,9.0,57,0.00,,SKC,0.00,VWS V14.01,2013-02-19 12:55:00,
2013-02-19 07:00:00,47.5,33.0,30.21,North,11,0.0,9.0,57,0.00,,SKC,0.00,VWS V14.01,2013-02-19 13:00:00,
2013-02-19 07:05:00,47.4,33.0,30.22,North,10,0.0,5.0,57,0.00,,SKC,0.00,VWS V14.01,2013-02-19 13:05:00,
2013-02-19 07:10:00,47.4,33.4,30.22,North,11,0.0,5.0,58,0.00,,SKC,0.00,VWS V14.01,2013-02-19 13:10:00,
2013-02-19 07:15:00,47.4,33.4,30.22,North,11,0.0,5.0,58,0.00,,SKC,0.00,VWS V14.01,2013-02-19 13:15:00,
2013-02-19 07:20:00,47.4,33.4,30.23,North,11,0.0,5.0,58,0.00,,SKC,0.00,VWS V14.01,2013-02-19 13:20:00,
2013-02-19 07:25:00,47.3,33.7,30.23,North,11,2.0,5.0,59,0.00,,SKC,0.00,VWS V14.01,2013-02-19 13:25:00,
2013-02-19 07:30:00,47.3,33.3,30.23,NNE,12,6.0,6.0,58,0.00,,SKC,0.00,VWS V14.01,2013-02-19 13:30:00,
2013-02-19 07:35:00,47.4,33.4,30.24,North,11,0.0,7.0,58,0.00,,SKC,0.00,VWS V14.01,2013-02-19 13:35:00,
2013-02-19 07:40:00,47.5,33.5,30.23,NNE,13,0.0,7.0,58,0.00,,SKC,0.00,VWS V14.01,2013-02-19 13:40:00,
2013-02-19 07:45:00,47.6,33.6,30.24,NNE,13,3.0,7.0,58,0.00,,SKC,0.00,VWS V14.01,2013-02-19 13:45:00,
2013-02-19 07:50:00,47.9,33.4,30.24,NE,39,4.0,7.0,57,0.00,,SKC,0.00,VWS V14.01,2013-02-19 13:50:00,
2013-02-19 07:55:00,48.2,33.3,30.24,NE,53,0.0,9.0,56,0.00,,SKC,0.00,VWS V14.01,2013-02-19 13:55:00,
2013-02-19 08:00:00,48.5,33.5,30.24,NE,51,0.0,9.0,56,0.00,,SKC,0.00,VWS V14.01,2013-02-19 14:00:00,
2013-02-19 08:05:00,48.7,33.7,30.25,NE,50,2.0,4.0,56,0.00,,SKC,0.00,VWS V14.01,2013-02-19 14:05:00,
2013-02-19 08:10:00,49.0,33.5,30.25,NE,40,0.0,6.0,55,0.00,,SKC,0.00,VWS V14.01,2013-02-19 14:10:00,
2013-02-19 08:15:00,49.2,33.7,30.25,NE,40,0.0,6.0,55,0.00,,SKC,0.00,VWS V14.01,2013-02-19 14:15:00,
2013-02-19 08:20:00,49.5,34.0,30.26,ENE,74,4.0,7.0,55,0.00,,SKC,0.00,VWS V14.01,2013-02-19 14:20:00,
2013-02-19 08:25:00,49.9,33.9,30.26,NE,49,4.0,7.0,54,0.00,,SKC,0.00,VWS V14.01,2013-02-19 14:25:00,
2013-02-19 08:30:00,50.4,33.9,30.26,NNE,30,1.0,9.0,53,0.00,,SKC,0.00,VWS V14.01,2013-02-19 14:30:00,
2013-02-19 08:35:00,50.8,34.3,30.26,NE,55,3.0,9.0,53,0.00,,SKC,0.00,VWS V14.01,2013-02-19 14:35:00,
2013-02-19 08:40:00,51.3,34.3,30.26,ENE,71,7.0,9.0,52,0.00,,SKC,0.00,VWS V14.01,2013-02-19 14:40:00,
2013-02-19 08:45:00,51.7,34.2,30.26,NE,38,2.0,9.0,51,0.00,,SKC,0.00,VWS V14.01,2013-02-19 14:45:00,
2013-02-19 08:50:00,52.2,34.6,30.26,NE,46,0.0,9.0,51,0.00,,SKC,0.00,VWS V14.01,2013-02-19 14:50:00,
2013-02-19 08:55:00,52.6,34.5,30.26,ENE,69,5.0,11.0,50,0.00,,SKC,0.00,VWS V14.01,2013-02-19 14:55:00,
2013-02-19 09:00:00,53.0,34.4,30.25,NE,55,4.0,11.0,49,0.00,,SKC,0.00,VWS V14.01,2013-02-19 15:00:00,
2013-02-19 09:05:00,53.5,34.3,30.26,ENE,71,4.0,12.0,48,0.00,,SKC,0.00,VWS V14.01,2013-02-19 15:05:00,
2013-02-19 09:10:00,53.8,34.1,30.26,ENE,69,2.0,12.0,47,0.00,,SKC,0.00,VWS V14.01,2013-02-19 15:10:00,
2013-02-19 09:15:00,54.2,33.9,30.26,NE,51,10.0,20.0,46,0.00,,SKC,0.00,VWS V14.01,2013-02-19 15:15:00,
2013-02-19 09:20:00,54.6,33.7,30.27,East,94,5.0,20.0,45,0.00,,SKC,0.00,VWS V14.01,2013-02-19 15:20:00,
2013-02-19 09:25:00,54.9,32.8,30.26,ENE,68,7.0,20.0,43,0.00,,SKC,0.00,VWS V14.01,2013-02-19 15:25:00,
2013-02-19 09:30:00,55.2,33.1,30.27,East,88,5.0,20.0,43,0.00,,SKC,0.00,VWS V14.01,2013-02-19 15:30:00,
2013-02-19 09:35:00,55.6,33.5,30.26,East,83,10.0,12.0,43,0.00,,SKC,0.00,VWS V14.01,2013-02-19 15:35:00,
2013-02-19 09:40:00,55.8,33.7,30.26,East,82,0.0,13.0,43,0.00,,SKC,0.00,VWS V14.01,2013-02-19 15:40:00,
2013-02-19 09:45:00,56.2,33.4,30.26,ENE,71,8.0,13.0,42,0.00,,SKC,0.00,VWS V14.01,2013-02-19 15:45:00,
2013-02-19 09:50:00,56.6,33.2,30.26,ENE,76,4.0,13.0,41,0.00,,SKC,0.00,VWS V14.01,2013-02-19 15:50:00,
2013-02-19 09:55:00,56.8,32.8,30.26,East,80,8.0,13.0,40,0.00,,SKC,0.00,VWS V14.01,2013-02-19 15:55:00,
2013-02-19 10:00:00,57.0,32.9,30.27,East,101,9.0,14.0,40,0.00,,SKC,0.00,VWS V14.01,2013-02-19 16:00:00,
2013-02-19 10:05:00,57.2,33.1,30.26,ENE,72,4.0,12.0,40,0.00,,SKC,0.00,VWS V14.01,2013-02-19 16:05:00,
2013-02-19 10:10:00,57.3,32.6,30.27,ENE,58,5.0,15.0,39,0.00,,SKC,0.00,VWS V14.01,2013-02-19 16:10:00,
2013-02-19 10:15:00,57.6,33.5,30.26,NE,55,0.0,15.0,40,0.00,,SKC,0.00,VWS V14.01,2013-02-19 16:15:00,
2013-02-19 10:20:00,58.1,33.3,30.26,East,86,9.0,15.0,39,0.00,,SKC,0.00,VWS V14.01,2013-02-19 16:20:00,
2013-02-19 10:25:00,58.6,33.1,30.27,East,80,6.0,15.0,38,0.00,,SKC,0.00,VWS V14.01,2013-02-19 16:25:00,
2013-02-19 10:30:00,58.9,33.4,30.27,ENE,77,0.0,15.0,38,0.00,,SKC,0.00,VWS V14.01,2013-02-19 16:30:00,
2013-02-19 10:35:00,59.3,33.7,30.26,East,83,3.0,11.0,38,0.00,,SKC,0.00,VWS V14.01,2013-02-19 16:35:00,
2013-02-19 10:40:00,59.4,33.1,30.27,ENE,78,10.0,13.0,37,0.00,,SKC,0.00,VWS V14.01,2013-02-19 16:40:00,
2013-02-19 10:45:00,59.2,33.0,30.27,ENE,61,6.0,13.0,37,0.00,,SKC,0.00,VWS V14.01,2013-02-19 16:45:00,
2013-02-19 10:50:00,59.1,33.5,30.27,NE,44,4.0,13.0,38,0.00,,SKC,0.00,VWS V14.01,2013-02-19 16:50:00,
2013-02-19 10:55:00,59.4,33.8,30.27,East,89,4.0,13.0,38,0.00,,SKC,0.00,VWS V14.01,2013-02-19 16:55:00,
2013-02-19 11:00:00,59.8,32.8,30.27,ESE,116,8.0,13.0,36,0.00,,SKC,0.00,VWS V14.01,2013-02-19 17:00:00,
2013-02-19 11:05:00,60.0,33.0,30.27,ENE,58,0.0,11.0,36,0.00,,SKC,0.00,VWS V14.01,2013-02-19 17:05:00,
2013-02-19 11:10:00,60.9,33.8,30.27,East,88,7.0,13.0,36,0.00,,SKC,0.00,VWS V14.01,2013-02-19 17:10:00,
2013-02-19 11:15:00,61.1,33.3,30.27,ENE,58,8.0,14.0,35,0.00,,SKC,0.00,VWS V14.01,2013-02-19 17:15:00,
2013-02-19 11:20:00,61.2,32.6,30.26,East,92,0.0,14.0,34,0.00,,SKC,0.00,VWS V14.01,2013-02-19 17:20:00,
2013-02-19 11:25:00,61.8,33.2,30.26,East,82,7.0,14.0,34,0.00,,SKC,0.00,VWS V14.01,2013-02-19 17:25:00,
2013-02-19 11:30:00,61.8,32.4,30.26,East,82,9.0,14.0,33,0.00,,SKC,0.00,VWS V14.01,2013-02-19 17:30:00,
2013-02-19 11:35:00,62.1,32.7,30.26,East,91,10.0,12.0,33,0.00,,SKC,0.00,VWS V14.01,2013-02-19 17:35:00,
2013-02-19 11:40:00,62.5,33.8,30.26,East,89,5.0,13.0,34,0.00,,SKC,0.00,VWS V14.01,2013-02-19 17:40:00,
2013-02-19 11:45:00,62.9,32.6,30.27,NE,55,6.0,13.0,32,0.00,,SKC,0.00,VWS V14.01,2013-02-19 17:45:00,
2013-02-19 11:50:00,62.8,32.5,30.26,ENE,58,2.0,13.0,32,0.00,,SKC,0.00,VWS V14.01,2013-02-19 17:50:00,
2013-02-19 11:55:00,63.1,33.6,30.26,ENE,69,1.0,13.0,33,0.00,,SKC,0.00,VWS V14.01,2013-02-19 17:55:00,
2013-02-19 12:00:00,63.5,32.3,30.26,East,82,8.0,17.0,31,0.00,,SKC,0.00,VWS V14.01,2013-02-19 18:00:00,
2013-02-19 12:05:00,63.5,33.1,30.26,NNE,30,2.0,6.0,32,0.00,,SKC,0.00,VWS V14.01,2013-02-19 18:05:00,
2013-02-19 12:10:00,63.1,32.8,30.26,East,88,3.0,13.0,32,0.00,,SKC,0.00,VWS V14.01,2013-02-19 18:10:00,
2013-02-19 12:15:00,63.1,32.8,30.25,East,86,2.0,13.0,32,0.00,,SKC,0.00,VWS V14.01,2013-02-19 18:15:00,
2013-02-19 12:20:00,64.1,32.9,30.25,East,84,6.0,13.0,31,0.00,,SKC,0.00,VWS V14.01,2013-02-19 18:20:00,
2013-02-19 12:25:00,64.5,32.4,30.24,East,80,2.0,13.0,30,0.00,,SKC,0.00,VWS V14.01,2013-02-19 18:25:00,
2013-02-19 12:30:00,65.0,32.8,30.25,East,94,6.0,13.0,30,0.00,,SKC,0.00,VWS V14.01,2013-02-19 18:30:00,
2013-02-19 12:35:00,65.2,32.2,30.24,NE,56,3.0,10.0,29,0.00,,SKC,0.00,VWS V14.01,2013-02-19 18:35:00,
2013-02-19 12:40:00,65.1,32.1,30.24,East,82,5.0,10.0,29,0.00,,SKC,0.00,VWS V14.01,2013-02-19 18:40:00,
2013-02-19 12:45:00,65.3,33.1,30.23,East,91,4.0,11.0,30,0.00,,SKC,0.00,VWS V14.01,2013-02-19 18:45:00,
2013-02-19 12:50:00,65.2,32.2,30.22,ENE,78,4.0,11.0,29,0.00,,SKC,0.00,VWS V14.01,2013-02-19 18:50:00,
2013-02-19 12:55:00,64.7,32.6,30.22,East,94,7.0,12.0,30,0.00,,SKC,0.00,VWS V14.01,2013-02-19 18:55:00,
2013-02-19 13:00:00,64.2,32.2,30.22,East,87,0.0,12.0,30,0.00,,SKC,0.00,VWS V14.01,2013-02-19 19:00:00,
2013-02-19 13:05:00,64.1,32.9,30.21,ENE,69,6.0,10.0,31,0.00,,SKC,0.00,VWS V14.01,2013-02-19 19:05:00,
2013-02-19 13:10:00,64.5,31.6,30.21,ENE,72,7.0,13.0,29,0.00,,SKC,0.00,VWS V14.01,2013-02-19 19:10:00,
2013-02-19 13:15:00,64.2,31.3,30.21,NE,44,10.0,13.0,29,0.00,,SKC,0.00,VWS V14.01,2013-02-19 19:15:00,
2013-02-19 13:20:00,64.0,32.0,30.20,East,86,5.0,13.0,30,0.00,,SKC,0.00,VWS V14.01,2013-02-19 19:20:00,
2013-02-19 13:25:00,64.3,32.2,30.21,East,96,5.0,13.0,30,0.00,,SKC,0.00,VWS V14.01,2013-02-19 19:25:00,
2013-02-19 13:30:00,64.5,31.6,30.20,East,95,5.0,14.0,29,0.00,,SKC,0.00,VWS V14.01,2013-02-19 19:30:00,
2013-02-19 13:35:00,64.6,31.6,30.19,ENE,74,1.0,10.0,29,0.00,,SKC,0.00,VWS V14.01,2013-02-19 19:35:00,
2013-02-19 13:40:00,64.7,32.6,30.19,East,94,3.0,11.0,30,0.00,,SKC,0.00,VWS V14.01,2013-02-19 19:40:00,
2013-02-19 13:45:00,64.9,31.9,30.18,NE,54,1.0,11.0,29,0.00,,SKC,0.00,VWS V14.01,2013-02-19 19:45:00,
2013-02-19 13:50:00,65.0,32.0,30.18,East,86,2.0,12.0,29,0.00,,SKC,0.00,VWS V14.01,2013-02-19 19:50:00,
2013-02-19 13:55:00,65.2,32.2,30.18,East,86,9.0,12.0,29,0.00,,SKC,0.00,VWS V14.01,2013-02-19 19:55:00,
2013-02-19 14:00:00,65.6,32.5,30.18,East,96,9.0,12.0,29,0.00,,SKC,0.00,VWS V14.01,2013-02-19 20:00:00,
2013-02-19 14:05:00,66.3,33.1,30.18,East,88,5.0,12.0,29,0.00,,SKC,0.00,VWS V14.01,2013-02-19 20:05:00,
2013-02-19 14:10:00,67.4,33.2,30.18,East,82,5.0,12.0,28,0.00,,SKC,0.00,VWS V14.01,2013-02-19 20:10:00,
2013-02-19 14:15:00,67.9,31.8,30.17,SE,125,5.0,12.0,26,0.00,,SKC,0.00,VWS V14.01,2013-02-19 20:15:00,
2013-02-19 14:20:00,67.7,31.6,30.17,ESE,107,2.0,15.0,26,0.00,,SKC,0.00,VWS V14.01,2013-02-19 20:20:00,
2013-02-19 14:25:00,67.4,31.4,30.17,ESE,105,5.0,15.0,26,0.00,,SKC,0.00,VWS V14.01,2013-02-19 20:25:00,
2013-02-19 14:30:00,67.2,30.2,30.16,ESE,105,7.0,15.0,25,0.00,,SKC,0.00,VWS V14.01,2013-02-19 20:30:00,
2013-02-19 14:35:00,66.7,30.8,30.16,SE,128,3.0,13.0,26,0.00,,SKC,0.00,VWS V14.01,2013-02-19 20:35:00,
2013-02-19 14:40:00,66.3,30.4,30.16,East,80,5.0,13.0,26,0.00,,SKC,0.00,VWS V14.01,2013-02-19 20:40:00,
2013-02-19 14:45:00,65.9,30.1,30.16,East,90,1.0,13.0,26,0.00,,SKC,0.00,VWS V14.01,2013-02-19 20:45:00,
2013-02-19 14:50:00,65.8,30.9,30.15,ESE,119,9.0,13.0,27,0.00,,SKC,0.00,VWS V14.01,2013-02-19 20:50:00,
2013-02-19 14:55:00,65.7,30.8,30.15,NE,54,1.0,13.0,27,0.00,,SKC,0.00,VWS V14.01,2013-02-19 20:55:00,
2013-02-19 15:00:00,65.5,30.7,30.15,East,90,6.0,13.0,27,0.00,,SKC,0.00,VWS V14.01,2013-02-19 21:00:00,
2013-02-19 15:05:00,65.4,31.5,30.15,East,82,4.0,6.0,28,0.00,,SKC,0.00,VWS V14.01,2013-02-19 21:05:00,
2013-02-19 15:10:00,65.4,30.6,30.15,East,92,3.0,12.0,27,0.00,,SKC,0.00,VWS V14.01,2013-02-19 21:10:00,
2013-02-19 15:15:00,65.4,30.6,30.14,East,93,4.0,12.0,27,0.00,,SKC,0.00,VWS V14.01,2013-02-19 21:15:00,
2013-02-19 15:20:00,65.4,31.5,30.14,East,94,6.0,12.0,28,0.00,,SKC,0.00,VWS V14.01,2013-02-19 21:20:00,
2013-02-19 15:25:00,65.4,30.6,30.14,East,95,2.0,12.0,27,0.00,,SKC,0.00,VWS V14.01,2013-02-19 21:25:00,
2013-02-19 15:30:00,65.6,31.6,30.13,East,83,9.0,12.0,28,0.00,,SKC,0.00,VWS V14.01,2013-02-19 21:30:00,
2013-02-19 15:35:00,65.6,31.6,30.13,East,93,0.0,9.0,28,0.00,,SKC,0.00,VWS V14.01,2013-02-19 21:35:00,
2013-02-19 15:40:00,65.8,30.9,30.14,ENE,76,3.0,10.0,27,0.00,,SKC,0.00,VWS V14.01,2013-02-19 21:40:00,
2013-02-19 15:45:00,65.8,30.9,30.14,East,99,11.0,11.0,27,0.00,,SKC,0.00,VWS V14.01,2013-02-19 21:45:00,
2013-02-19 15:50:00,65.8,30.9,30.13,East,96,1.0,11.0,27,0.00,,SKC,0.00,VWS V14.01,2013-02-19 21:50:00,
2013-02-19 15:55:00,65.9,30.1,30.13,East,79,5.0,11.0,26,0.00,,SKC,0.00,VWS V14.01,2013-02-19 21:55:00,
2013-02-19 16:00:00,65.7,30.8,30.13,SE,140,0.0,11.0,27,0.00,,SKC,0.00,VWS V14.01,2013-02-19 22:00:00,
2013-02-19 16:05:00,65.6,29.8,30.13,East,94,2.0,7.0,26,0.00,,SKC,0.00,VWS V14.01,2013-02-19 22:05:00,
2013-02-19 16:10:00,65.7,30.8,30.13,East,85,6.0,10.0,27,0.00,,SKC,0.00,VWS V14.01,2013-02-19 22:10:00,
2013-02-19 16:15:00,65.9,31.0,30.13,ENE,77,10.0,10.0,27,0.00,,SKC,0.00,VWS V14.01,2013-02-19 22:15:00,
2013-02-19 16:20:00,66.1,31.2,30.12,East,89,1.0,11.0,27,0.00,,SKC,0.00,VWS V14.01,2013-02-19 22:20:00,
2013-02-19 16:25:00,66.1,31.2,30.12,SE,128,4.0,11.0,27,0.00,,SKC,0.00,VWS V14.01,2013-02-19 22:25:00,
2013-02-19 16:30:00,66.1,31.2,30.13,East,81,2.0,11.0,27,0.00,,SKC,0.00,VWS V14.01,2013-02-19 22:30:00,
2013-02-19 16:35:00,66.1,30.2,30.12,East,92,0.0,9.0,26,0.00,,SKC,0.00,VWS V14.01,2013-02-19 22:35:00,
2013-02-19 16:40:00,66.0,31.1,30.12,SE,130,1.0,9.0,27,0.00,,SKC,0.00,VWS V14.01,2013-02-19 22:40:00,
2013-02-19 16:45:00,66.0,30.2,30.12,ESE,103,0.0,11.0,26,0.00,,SKC,0.00,VWS V14.01,2013-02-19 22:45:00,
2013-02-19 16:50:00,65.9,30.1,30.12,East,84,2.0,11.0,26,0.00,,SKC,0.00,VWS V14.01,2013-02-19 22:50:00,
2013-02-19 16:55:00,65.9,30.1,30.12,ENE,67,9.0,11.0,26,0.00,,SKC,0.00,VWS V14.01,2013-02-19 22:55:00,
2013-02-19 17:00:00,65.8,30.9,30.13,SE,146,5.0,11.0,27,0.00,,SKC,0.00,VWS V14.01,2013-02-19 23:00:00,
2013-02-19 17:05:00,65.7,30.8,30.13,SSE,148,0.0,11.0,27,0.00,,SKC,0.00,VWS V14.01,2013-02-19 23:05:00,
2013-02-19 17:10:00,65.6,30.8,30.13,East,98,0.0,11.0,27,0.00,,SKC,0.00,VWS V14.01,2013-02-19 23:10:00,
2013-02-19 17:15:00,65.6,31.6,30.12,SE,126,0.0,11.0,28,0.00,,SKC,0.00,VWS V14.01,2013-02-19 23:15:00,
2013-02-19 17:20:00,65.4,31.5,30.12,East,90,0.0,11.0,28,0.00,,SKC,0.00,VWS V14.01,2013-02-19 23:20:00,
2013-02-19 17:25:00,65.3,31.4,30.12,ESE,115,1.0,11.0,28,0.00,,SKC,0.00,VWS V14.01,2013-02-19 23:25:00,
2013-02-19 17:30:00,65.2,31.3,30.12,SE,135,2.0,11.0,28,0.00,,SKC,0.00,VWS V14.01,2013-02-19 23:30:00,
2013-02-19 17:35:00,65.1,31.2,30.12,SE,137,5.0,9.0,28,0.00,,SKC,0.00,VWS V14.01,2013-02-19 23:35:00,
2013-02-19 17:40:00,65.0,31.1,30.12,SE,136,0.0,13.0,28,0.00,,SKC,0.00,VWS V14.01,2013-02-19 23:40:00,
2013-02-19 17:45:00,64.9,31.0,30.12,East,94,5.0,13.0,28,0.00,,SKC,0.00,VWS V14.01,2013-02-19 23:45:00,
2013-02-19 17:50:00,64.9,31.0,30.13,SE,128,0.0,13.0,28,0.00,,SKC,0.00,VWS V14.01,2013-02-19 23:50:00,
2013-02-19 17:55:00,64.8,31.8,30.13,ESE,116,3.0,13.0,29,0.00,,SKC,0.00,VWS V14.01,2013-02-19 23:55:00,
2013-02-19 18:00:00,64.8,31.8,30.13,ESE,115,0.0,13.0,29,0.00,,SKC,0.00,VWS V14.01,2013-02-20 00:00:00,
2013-02-19 18:05:00,64.7,31.7,30.12,ESE,115,3.0,3.0,29,0.00,,SKC,0.00,VWS V14.01,2013-02-20 00:05:00,
2013-02-19 18:10:00,64.7,31.7,30.12,ESE,123,0.0,7.0,29,0.00,,SKC,0.00,VWS V14.01,2013-02-20 00:10:00,
2013-02-19 18:15:00,64.5,31.6,30.12,East,82,3.0,11.0,29,0.00,,SKC,0.00,VWS V14.01,2013-02-20 00:15:00,
2013-02-19 18:20:00,64.4,31.5,30.12,East,92,0.0,11.0,29,0.00,,SKC,0.00,VWS V14.01,2013-02-20 00:20:00,
2013-02-19 18:25:00,64.2,32.2,30.12,East,83,6.0,11.0,30,0.00,,SKC,0.00,VWS V14.01,2013-02-20 00:25:00,
2013-02-19 18:30:00,64.1,32.1,30.12,East,82,0.0,11.0,30,0.00,,SKC,0.00,VWS V14.01,2013-02-20 00:30:00,
2013-02-19 18:35:00,64.0,32.0,30.12,East,80,0.0,3.0,30,0.00,,SKC,0.00,VWS V14.01,2013-02-20 00:35:00,
2013-02-19 18:40:00,63.9,31.9,30.12,East,91,0.0,6.0,30,0.00,,SKC,0.00,VWS V14.01,2013-02-20 00:40:00,
2013-02-19 18:45:00,63.8,31.8,30.11,East,94,5.0,11.0,30,0.00,,SKC,0.00,VWS V14.01,2013-02-20 00:45:00,
2013-02-19 18:50:00,63.6,30.8,30.12,SE,134,3.0,11.0,29,0.00,,SKC,0.00,VWS V14.01,2013-02-20 00:50:00,
2013-02-19 18:55:00,63.6,30.8,30.12,SE,127,3.0,11.0,29,0.00,,SKC,0.00,VWS V14.01,2013-02-20 00:55:00,
2013-02-19 19:00:00,63.5,30.7,30.11,SE,127,0.0,11.0,29,0.00,,SKC,0.00,VWS V14.01,2013-02-20 01:00:00,
2013-02-19 19:05:00,63.3,30.5,30.12,ESE,121,2.0,6.0,29,0.00,,SKC,0.00,VWS V14.01,2013-02-20 01:05:00,
2013-02-19 19:10:00,63.2,30.4,30.12,ESE,121,0.0,6.0,29,0.00,,SKC,0.00,VWS V14.01,2013-02-20 01:10:00,
2013-02-19 19:15:00,63.1,30.4,30.12,ESE,121,0.0,6.0,29,0.00,,SKC,0.00,VWS V14.01,2013-02-20 01:15:00,
2013-02-19 19:20:00,63.0,30.3,30.12,ESE,119,0.0,6.0,29,0.00,,SKC,0.00,VWS V14.01,2013-02-20 01:20:00,
2013-02-19 19:25:00,62.9,31.0,30.12,East,92,2.0,10.0,30,0.00,,SKC,0.00,VWS V14.01,2013-02-20 01:25:00,
2013-02-19 19:30:00,62.7,30.8,30.13,East,92,3.0,10.0,30,0.00,,SKC,0.00,VWS V14.01,2013-02-20 01:30:00,
2013-02-19 19:35:00,62.7,31.6,30.11,ESE,116,0.0,7.0,31,0.00,,SKC,0.00,VWS V14.01,2013-02-20 01:35:00,
2013-02-19 19:40:00,62.6,31.6,30.12,ESE,117,2.0,7.0,31,0.00,,SKC,0.00,VWS V14.01,2013-02-20 01:40:00,
2013-02-19 19:45:00,62.5,31.5,30.13,East,92,0.0,7.0,31,0.00,,SKC,0.00,VWS V14.01,2013-02-20 01:45:00,
2013-02-19 19:50:00,62.5,31.5,30.13,East,93,0.0,10.0,31,0.00,,SKC,0.00,VWS V14.01,2013-02-20 01:50:00,
2013-02-19 19:55:00,62.4,31.4,30.14,East,88,1.0,10.0,31,0.00,,SKC,0.00,VWS V14.01,2013-02-20 01:55:00,
2013-02-19 20:00:00,62.3,31.3,30.14,East,89,3.0,10.0,31,0.00,,SKC,0.00,VWS V14.01,2013-02-20 02:00:00,
2013-02-19 20:05:00,62.3,32.1,30.14,East,98,0.0,6.0,32,0.00,,SKC,0.00,VWS V14.01,2013-02-20 02:05:00,
2013-02-19 20:10:00,62.2,32.0,30.13,East,98,0.0,6.0,32,0.00,,SKC,0.00,VWS V14.01,2013-02-20 02:10:00,
2013-02-19 20:15:00,62.1,31.9,30.13,East,97,0.0,6.0,32,0.00,,SKC,0.00,VWS V14.01,2013-02-20 02:15:00,
2013-02-19 20:20:00,62.0,32.6,30.13,East,88,0.0,10.0,33,0.00,,SKC,0.00,VWS V14.01,2013-02-20 02:20:00,
2013-02-19 20:25:00,61.9,32.5,30.13,East,85,4.0,10.0,33,0.00,,SKC,0.00,VWS V14.01,2013-02-20 02:25:00,
2013-02-19 20:30:00,61.8,32.4,30.12,East,85,0.0,10.0,33,0.00,,SKC,0.00,VWS V14.01,2013-02-20 02:30:00,
2013-02-19 20:35:00,61.7,33.1,30.11,East,89,4.0,5.0,34,0.00,,SKC,0.00,VWS V14.01,2013-02-20 02:35:00,
2013-02-19 20:40:00,61.6,33.0,30.12,East,90,0.0,7.0,34,0.00,,SKC,0.00,VWS V14.01,2013-02-20 02:40:00,
2013-02-19 20:45:00,61.5,32.9,30.12,East,89,4.0,7.0,34,0.00,,SKC,0.00,VWS V14.01,2013-02-20 02:45:00,
2013-02-19 20:50:00,61.4,32.8,30.12,East,80,2.0,7.0,34,0.00,,SKC,0.00,VWS V14.01,2013-02-20 02:50:00,
2013-02-19 20:55:00,61.3,32.7,30.13,East,91,0.0,7.0,34,0.00,,SKC,0.00,VWS V14.01,2013-02-20 02:55:00,
2013-02-19 21:00:00,61.2,32.6,30.12,ENE,78,0.0,7.0,34,0.00,,SKC,0.00,VWS V14.01,2013-02-20 03:00:00,
2013-02-19 21:05:00,61.1,32.5,30.12,East,90,9.0,9.0,34,0.00,,SKC,0.00,VWS V14.01,2013-02-20 03:05:00,
2013-02-19 21:10:00,61.0,32.5,30.12,SE,134,0.0,10.0,34,0.00,,SKC,0.00,VWS V14.01,2013-02-20 03:10:00,
2013-02-19 21:15:00,61.0,33.2,30.12,East,90,5.0,10.0,35,0.00,,SKC,0.00,VWS V14.01,2013-02-20 03:15:00,
2013-02-19 21:20:00,60.9,33.1,30.12,ENE,76,1.0,10.0,35,0.00,,SKC,0.00,VWS V14.01,2013-02-20 03:20:00,
2013-02-19 21:25:00,60.8,33.0,30.13,East,87,3.0,10.0,35,0.00,,SKC,0.00,VWS V14.01,2013-02-20 03:25:00,
2013-02-19 21:30:00,60.8,33.0,30.12,East,99,4.0,10.0,35,0.00,,SKC,0.00,VWS V14.01,2013-02-20 03:30:00,
2013-02-19 21:35:00,60.7,32.9,30.13,SE,136,4.0,9.0,35,0.00,,SKC,0.00,VWS V14.01,2013-02-20 03:35:00,
2013-02-19 21:40:00,60.7,32.9,30.12,ESE,119,3.0,9.0,35,0.00,,SKC,0.00,VWS V14.01,2013-02-20 03:40:00,
2013-02-19 21:45:00,60.7,32.9,30.12,ESE,121,4.0,9.0,35,0.00,,SKC,0.00,VWS V14.01,2013-02-20 03:45:00,
2013-02-19 21:50:00,60.6,32.8,30.12,ESE,105,4.0,10.0,35,0.00,,SKC,0.00,VWS V14.01,2013-02-20 03:50:00,
2013-02-19 21:55:00,60.5,32.7,30.12,SE,136,9.0,11.0,35,0.00,,SKC,0.00,VWS V14.01,2013-02-20 03:55:00,
2013-02-19 22:00:00,60.4,32.7,30.11,SSE,148,1.0,12.0,35,0.00,,SKC,0.00,VWS V14.01,2013-02-20 04:00:00,
2013-02-19 22:05:00,60.3,32.6,30.12,East,97,4.0,7.0,35,0.00,,SKC,0.00,VWS V14.01,2013-02-20 04:05:00,
2013-02-19 22:10:00,60.2,33.2,30.13,SE,128,1.0,10.0,36,0.00,,SKC,0.00,VWS V14.01,2013-02-20 04:10:00,
2013-02-19 22:15:00,60.1,33.1,30.12,ESE,116,0.0,10.0,36,0.00,,SKC,0.00,VWS V14.01,2013-02-20 04:15:00,
2013-02-19 22:20:00,60.0,33.7,30.12,ESE,119,1.0,12.0,37,0.00,,SKC,0.00,VWS V14.01,2013-02-20 04:20:00,
2013-02-19 22:25:00,60.0,33.7,30.12,SE,138,3.0,12.0,37,0.00,,SKC,0.00,VWS V14.01,2013-02-20 04:25:00,
2013-02-19 22:30:00,59.9,34.2,30.12,SSE,151,0.0,12.0,38,0.00,,SKC,0.00,VWS V14.01,2013-02-20 04:30:00,
2013-02-19 22:35:00,59.8,34.2,30.12,SE,138,13.0,13.0,38,0.00,,SKC,0.00,VWS V14.01,2013-02-20 04:35:00,
2013-02-19 22:40:00,59.7,34.7,30.12,SE,138,6.0,13.0,39,0.00,,SKC,0.00,VWS V14.01,2013-02-20 04:40:00,
2013-02-19 22:45:00,59.6,34.6,30.12,SE,144,8.0,14.0,39,0.00,,SKC,0.00,VWS V14.01,2013-02-20 04:45:00,
2013-02-19 22:50:00,59.5,34.5,30.12,SE,140,7.0,14.0,39,0.00,,SKC,0.00,VWS V14.01,2013-02-20 04:50:00,
2013-02-19 22:55:00,59.4,34.5,30.12,SE,133,5.0,14.0,39,0.00,,SKC,0.00,VWS V14.01,2013-02-20 04:55:00,
2013-02-19 23:00:00,59.3,35.0,30.11,SE,131,5.0,14.0,40,0.00,,SKC,0.00,VWS V14.01,2013-02-20 05:00:00,
2013-02-19 23:05:00,59.2,34.3,30.10,SSE,152,7.0,17.0,39,0.00,,SKC,0.00,VWS V14.01,2013-02-20 05:05:00,
2013-02-19 23:10:00,59.1,34.2,30.10,SSE,148,3.0,17.0,39,0.00,,SKC,0.00,VWS V14.01,2013-02-20 05:10:00,
2013-02-19 23:15:00,59.0,34.7,30.10,SE,132,1.0,17.0,40,0.00,,SKC,0.00,VWS V14.01,2013-02-20 05:15:00,
2013-02-19 23:20:00,59.0,34.7,30.11,SE,144,12.0,17.0,40,0.00,,SKC,0.00,VWS V14.01,2013-02-20 05:20:00,
2013-02-19 23:25:00,58.9,34.6,30.12,SE,137,7.0,17.0,40,0.00,,SKC,0.00,VWS V14.01,2013-02-20 05:25:00,
2013-02-19 23:30:00,58.8,34.5,30.13,SE,138,5.0,17.0,40,0.00,,SKC,0.00,VWS V14.01,2013-02-20 05:30:00,
2013-02-19 23:35:00,58.7,33.8,30.14,ESE,115,4.0,10.0,39,0.00,,SKC,0.00,VWS V14.01,2013-02-20 05:35:00,
2013-02-19 23:40:00,58.7,33.8,30.15,SE,146,4.0,10.0,39,0.00,,SKC,0.00,VWS V14.01,2013-02-20 05:40:00,
2013-02-19 23:45:00,58.7,33.2,30.15,SSE,154,2.0,10.0,38,0.00,,SKC,0.00,VWS V14.01,2013-02-20 05:45:00,
2013-02-19 23:50:00,58.6,33.1,30.15,SSE,157,1.0,12.0,38,0.00,,SKC,0.00,VWS V14.01,2013-02-20 05:50:00,
2013-02-19 23:55:00,58.5,31.7,30.15,ESE,115,0.0,12.0,36,0.00,,SKC,0.00,VWS V14.01,2013-02-20 05:55:00,